Location: *
(33.8649°S, 62.1526°E)
Time: 12:57:02
(UTC+00:00)

Cosmos 2237 - Pass Details

Date: 17 January 2021
Orbit: 844 x 857 km, 70.8° (Epoch: 03 March)

Event Time Altitude Azimuth Distance (km) Brightness Sun altitude
Rises 21:51:26 0° 200° (SSW) 3,434 7.9 -29.6°
Reaches altitude 10° 21:53:54 10° 198° (SSW) 2,491 7.1 -29.4°
Maximum altitude 21:59:38 79° 111° (ESE) 870 4.2 -28.8°
Enters shadow 21:59:44 79° 96° (E) 870 4.2 -28.8°
